Flag for Germany Weather past 2 weeks in Deggendorf, Bavaria, Germany

Now
40 °F

Overcast.


Feels Like: 38 °F
Forecast: 30 / 56 °F
Wind: 3 mph from Northwest

Location: Straubing

Current Time: Apr 18, 2015 at 5:55:24 AM

Latest Report: Apr 18, 2015 at 4:00 AM


Visibility: 19 mi

Pressure: 30.14 "Hg

Humidity: 72%

Dew point: 32 °F

Location of DeggendorfLocation

Historic Weather in Deggendorf — Graph

°F

Deggendorf temperature yesterday

Maximum temperature yesterday: 59 °F (at 3:00 AM)
Minimum temperature yesterday: 46 °F (at 11:00 PM)
Average temperature yesterday: 54 °F

Past Weeks' High & Low Weather Summary

 TemperatureHumidityPressure
High73 °F (Apr 15, 6:00 PM)96% (Apr 9, 7:00 AM)30.65 "Hg (Apr 9, 7:00 AM)
Low30 °F (Apr 5, 7:00 AM)26% (Apr 15, 3:00 PM)29.85 "Hg (Apr 17, 3:00 PM)
Average48 °F67%30.24 "Hg
* Reported Apr 3 4:00 AM — Apr 18 4:00 AM, Deggendorf, Weather by CustomWeather, © 2015

Note: Actual official high and low records may vary slightly from our data, if they occured in-between our weather recording intervals... More about our weather records

Advertising

Deggendorf weather history for previous 24 hours

 ConditionsComfort  
Time TempWeatherWind HumidityBarometerVisibility
4:00 AM
Sat, Apr 18
40 °FOvercast.3 mph72%30.14 "Hg19 mi
3:00 AM42 °FOvercast.3 mph67%30.12 "Hg25 mi
2:00 AM42 °FOvercast.3 mph68%30.12 "Hg31 mi
1:00 AM44 °FOvercast.3 mph61%30.10 "Hg28 mi
12:00 AM45 °FOvercast.3 mph59%30.08 "Hg22 mi
11:00 PM
Fri, Apr 17
46 °FOvercast.6 mph59%30.06 "Hg19 mi
10:00 PM47 °FOvercast.10 mph58%30.02 "Hg17 mi
9:00 PM51 °FOvercast.6 mph70%29.98 "Hg7 mi
8:00 PM52 °FOvercast.5 mph74%29.93 "Hg5 mi
7:00 PM53 °FLight rain. Overcast.5 mph74%29.91 "Hg5 mi
6:00 PM53 °FOvercast.6 mph81%29.89 "Hg5 mi
4:00 PM58 °FOvercast.5 mph75%29.85 "Hg4 mi
3:00 PM56 °FLight rain. Overcast.1 mph92%29.85 "Hg6 mi
2:00 PM55 °FLight freezing rain. Light fog.1 mph91%29.86 "Hg5 mi
1:00 PM59 °FOvercast.2 mph76%29.87 "Hg14 mi
12:00 PM57 °FOvercast.1 mph84%29.88 "Hg14 mi
11:00 AM54 °FLight rain. Overcast.1 mph92%29.89 "Hg4 mi
10:00 AM53 °FLight rain. Overcast.2 mph95%29.89 "Hg4 mi
9:00 AM53 °FLight rain. Overcast.2 mph95%29.88 "Hg2 mi
8:00 AM53 °FLight rain. Overcast.2 mph91%29.88 "Hg8 mi
7:00 AM53 °FOvercast.1 mph88%29.88 "Hg11 mi
6:00 AM53 °FLight rain. Overcast.3 mph85%29.87 "Hg10 mi
Weather by CustomWeather, © 2015

See weather overviewHow to use our weather pages